contact:dominique.lefevre@mio.osupytheas.fr, maurice.libes@osupytheas.fr, didier.mallarino@osupytheas.fr
Project:EMSO http://www.emso-fr.org/EMSO-France
Depth: 2436.0 m
Title:EMSO Ligure Ouest : Data MII capteur AQUADOPP
Date,Latitude,Longitude,X_East,Y_North,Z_Up,Amplitude_X,Amplitude_Y,Amplitude_Z,Batterie,SoundSpeed,Heading,Pitch,Roll,Pressure,TIS,Speed,Direction
, degrees North, degrees East, m.s-1, m.s-1,m.s-1, 1, 1, 1, Volt, m.s-1, degree, degree, degree, dbar, degree_C, m.s-1, degree
2019-12-28T00:04:03,42.805,6.029,0.051,-0.007,-0.027,109.0,109.0,105.0,13.4,1505.2,328.3,-0.8,1.8,2470.254,13.3,0.051,97.8
2019-12-28T00:07:03,42.805,6.029,0.026,-0.007,0.012,109.0,109.0,104.0,13.4,1505.3,324.9,-0.7,1.8,2470.238,13.31,0.026,105.1
2019-12-28T00:10:03,42.805,6.029,0.035,-0.007,-0.041,109.0,109.0,104.0,13.4,1505.3,326.9,-0.7,1.8,2470.234,13.32,0.035,101.3
2019-12-28T00:13:03,42.805,6.029,0.033,0.0,-0.036,107.0,109.0,104.0,13.4,1505.3,323.6,-0.7,1.8,2470.227,13.32,0.033,90.0
2019-12-28T00:16:03,42.805,6.029,0.041,-0.008,0.019,109.0,108.0,104.0,13.4,1505.3,326.7,-0.7,1.8,2470.24,13.32,0.041,101.0
2019-12-28T00:19:03,42.805,6.029,0.017,-0.006,-0.014,109.0,109.0,105.0,13.4,1505.3,325.4,-0.7,1.8,2470.236,13.32,0.018,109.4
2019-12-28T00:22:03,42.805,6.029,0.035,-0.003,-0.011,107.0,110.0,105.0,13.3,1505.3,324.3,-0.7,1.8,2470.281,13.32,0.035,94.9
2019-12-28T00:25:03,42.805,6.029,0.05,-0.009,-0.042,109.0,109.0,104.0,13.4,1505.3,324.8,-0.7,1.8,2470.224,13.32,0.05,100.2
2019-12-28T00:28:03,42.805,6.029,0.037,-0.009,-0.022,108.0,108.0,104.0,13.4,1505.3,324.7,-0.7,1.8,2470.164,13.32,0.038,103.7
2019-12-28T00:31:03,42.805,6.029,0.045,-0.03,-0.023,106.0,110.0,104.0,13.4,1505.3,325.9,-0.7,1.8,2470.257,13.32,0.054,123.7
2019-12-28T00:34:03,42.805,6.029,0.069,0.0,-0.009,109.0,108.0,104.0,13.4,1505.3,323.2,-0.7,1.8,2470.246,13.32,0.068,90.0
2019-12-28T00:37:03,42.805,6.029,0.016,0.002,-0.023,108.0,110.0,105.0,13.3,1505.3,326.7,-0.7,1.9,2470.2,13.32,0.016,82.9
2019-12-28T00:40:03,42.805,6.029,0.016,0.004,-0.028,107.0,108.0,106.0,13.3,1505.3,324.9,-0.7,1.8,2470.233,13.32,0.016,76.0
2019-12-28T00:43:03,42.805,6.029,0.019,-0.021,-0.033,110.0,110.0,104.0,13.4,1505.3,326.3,-0.7,1.8,2470.2,13.32,0.028,137.9
2019-12-28T00:46:03,42.805,6.029,0.032,0.005,-0.027,110.0,109.0,104.0,13.4,1505.3,325.9,-0.7,1.8,2470.255,13.32,0.032,81.1
2019-12-28T00:49:03,42.805,6.029,0.052,-0.013,-0.044,109.0,109.0,105.0,13.3,1505.3,327.0,-0.7,1.8,2470.217,13.32,0.053,104.0
2019-12-28T00:52:03,42.805,6.029,0.053,-0.021,0.0,108.0,111.0,104.0,13.4,1505.3,325.5,-0.7,1.9,2470.225,13.32,0.057,111.6
2019-12-28T00:55:03,42.805,6.029,0.039,-0.028,-0.013,109.0,109.0,104.0,13.3,1505.3,326.3,-0.7,1.8,2470.19,13.32,0.048,125.7
2019-12-28T00:58:03,42.805,6.029,0.058,0.004,0.015,110.0,110.0,105.0,13.4,1505.3,322.8,-0.7,1.8,2470.198,13.32,0.058,86.1
2019-12-28T01:04:03,42.805,6.029,0.039,-0.008,-0.002,109.0,111.0,104.0,13.3,1505.2,325.5,-0.7,1.8,2470.231,13.3,0.039,101.6
2019-12-28T01:07:03,42.805,6.029,0.042,-0.008,-0.01,109.0,108.0,104.0,13.4,1505.3,326.7,-0.7,1.9,2470.179,13.31,0.042,100.8
2019-12-28T01:10:03,42.805,6.029,0.04,-0.013,-0.017,107.0,108.0,104.0,13.3,1505.3,324.2,-0.7,1.8,2470.191,13.31,0.042,108.0
2019-12-28T01:13:03,42.805,6.029,0.054,-0.003,-0.014,110.0,109.0,105.0,13.3,1505.3,326.4,-0.8,1.8,2470.229,13.32,0.054,93.2
2019-12-28T01:16:03,42.805,6.029,0.053,-0.019,-0.047,109.0,109.0,105.0,13.4,1505.3,324.6,-0.7,1.8,2470.211,13.32,0.056,109.7
2019-12-28T01:19:03,42.805,6.029,0.042,-0.009,-0.052,109.0,109.0,104.0,13.4,1505.3,323.5,-0.7,1.8,2470.244,13.32,0.042,102.1
2019-12-28T01:22:03,42.805,6.029,0.044,-0.014,-0.009,106.0,110.0,105.0,13.4,1505.3,324.4,-0.7,1.8,2470.206,13.32,0.046,107.6
2019-12-28T01:25:03,42.805,6.029,0.038,-0.02,-0.017,109.0,110.0,104.0,13.4,1505.3,324.3,-0.7,1.8,2470.224,13.32,0.042,117.8
2019-12-28T01:28:03,42.805,6.029,0.04,-0.012,-0.01,109.0,109.0,105.0,13.4,1505.3,325.1,-0.7,1.8,2470.189,13.32,0.041,106.7
2019-12-28T01:31:03,42.805,6.029,0.041,-0.011,-0.003,109.0,108.0,105.0,13.4,1505.3,323.8,-0.7,1.9,2470.181,13.32,0.042,105.0
2019-12-28T01:34:03,42.805,6.029,0.057,0.02,-0.009,109.0,110.0,104.0,13.3,1505.3,324.0,-0.7,1.8,2470.204,13.32,0.06,70.7
2019-12-28T01:37:03,42.805,6.029,0.053,-0.017,-0.005,110.0,109.0,103.0,13.3,1505.3,324.4,-0.7,1.8,2470.176,13.32,0.055,107.8
2019-12-28T01:40:03,42.805,6.029,0.025,-0.022,-0.003,108.0,109.0,104.0,13.4,1505.3,326.9,-0.7,1.8,2470.183,13.32,0.033,131.3
2019-12-28T01:43:03,42.805,6.029,0.046,-0.015,-0.002,107.0,111.0,105.0,13.3,1505.3,324.9,-0.7,1.8,2470.165,13.32,0.048,108.1
2019-12-28T01:46:03,42.805,6.029,0.041,-0.03,-0.015,108.0,109.0,104.0,13.3,1505.3,326.5,-0.7,1.8,2470.215,13.32,0.05,126.2
2019-12-28T01:49:03,42.805,6.029,0.034,-0.015,-0.007,108.0,108.0,103.0,13.4,1505.3,324.5,-0.7,1.8,2470.204,13.32,0.037,113.8
2019-12-28T01:52:03,42.805,6.029,0.037,-0.023,-0.025,109.0,109.0,105.0,13.3,1505.3,324.9,-0.7,1.8,2470.179,13.32,0.043,121.9
2019-12-28T01:55:03,42.805,6.029,0.055,-0.023,-0.035,108.0,110.0,104.0,13.4,1505.3,326.7,-0.8,1.8,2470.185,13.32,0.059,112.7
2019-12-28T01:58:03,42.805,6.029,0.05,-0.016,-0.032,109.0,109.0,104.0,13.4,1505.3,325.1,-0.7,1.9,2470.191,13.32,0.052,107.7
2019-12-28T02:04:03,42.805,6.029,0.055,-0.009,-0.003,108.0,110.0,103.0,13.4,1505.2,328.0,-0.8,1.9,2470.226,13.3,0.055,99.3
2019-12-28T02:07:03,42.805,6.029,0.041,0.006,-0.027,109.0,110.0,104.0,13.4,1505.3,325.8,-0.7,1.9,2470.23,13.31,0.041,81.7
2019-12-28T02:10:03,42.805,6.029,0.033,-0.015,-0.043,108.0,109.0,104.0,13.4,1505.3,324.3,-0.7,1.8,2470.255,13.31,0.036,114.4
2019-12-28T02:13:03,42.805,6.029,0.033,0.0,-0.02,109.0,109.0,105.0,13.4,1505.3,326.0,-0.7,1.8,2470.214,13.32,0.033,90.0
2019-12-28T02:16:03,42.805,6.029,0.056,-0.009,-0.022,109.0,110.0,105.0,13.4,1505.3,327.5,-0.7,1.8,2470.198,13.32,0.056,99.1
2019-12-28T02:19:03,42.805,6.029,0.053,-0.006,-0.043,109.0,110.0,105.0,13.3,1505.3,326.2,-0.7,1.8,2470.21,13.32,0.053,96.5
2019-12-28T02:22:03,42.805,6.029,0.039,-0.019,0.021,109.0,110.0,105.0,13.3,1505.3,326.4,-0.7,1.9,2470.159,13.32,0.043,116.0
2019-12-28T02:25:03,42.805,6.029,0.053,-0.007,-0.011,109.0,110.0,105.0,13.4,1505.3,326.0,-0.7,1.8,2470.128,13.32,0.053,97.5
2019-12-28T02:28:03,42.805,6.029,0.028,-0.015,-0.05,110.0,109.0,106.0,13.4,1505.3,325.1,-0.7,1.8,2470.174,13.32,0.031,118.2
2019-12-28T02:31:03,42.805,6.029,0.076,-0.008,-0.024,110.0,109.0,105.0,13.3,1505.3,328.4,-0.7,1.8,2470.173,13.32,0.076,96.0
2019-12-28T02:34:03,42.805,6.029,0.061,-0.003,-0.051,109.0,108.0,104.0,13.3,1505.3,327.8,-0.7,1.9,2470.186,13.32,0.061,92.8
2019-12-28T02:37:03,42.805,6.029,0.064,-0.019,-0.028,109.0,107.0,105.0,13.4,1505.3,325.7,-0.7,1.9,2470.177,13.32,0.066,106.5
2019-12-28T02:40:03,42.805,6.029,0.043,-0.033,-0.036,109.0,108.0,104.0,13.4,1505.3,323.4,-0.7,1.9,2470.152,13.32,0.054,127.5
2019-12-28T02:43:03,42.805,6.029,0.053,-0.008,-0.003,109.0,111.0,104.0,13.4,1505.3,322.9,-0.7,1.8,2470.207,13.32,0.053,98.6
2019-12-28T02:46:03,42.805,6.029,0.05,-0.029,-0.022,109.0,109.0,105.0,13.4,1505.3,323.7,-0.7,1.8,2470.176,13.32,0.057,120.1
2019-12-28T02:49:03,42.805,6.029,0.055,-0.003,-0.04,109.0,109.0,106.0,13.3,1505.3,325.9,-0.8,1.8,2470.177,13.32,0.055,93.1
2019-12-28T02:52:03,42.805,6.029,0.052,-0.025,-0.015,110.0,109.0,106.0,13.4,1505.3,324.6,-0.7,1.9,2470.174,13.32,0.057,115.7
2019-12-28T02:55:03,42.805,6.029,0.052,-0.011,0.012,109.0,109.0,105.0,13.3,1505.3,327.9,-0.7,1.8,2470.204,13.32,0.053,101.9
2019-12-28T02:58:03,42.805,6.029,0.039,-0.03,0.001,110.0,111.0,106.0,13.4,1505.3,328.2,-0.7,1.9,2470.199,13.32,0.049,127.6
2019-12-28T03:04:03,42.805,6.029,0.058,-0.014,0.0,110.0,108.0,104.0,13.4,1505.2,326.3,-0.7,1.8,2470.181,13.3,0.059,103.6
2019-12-28T03:07:03,42.805,6.029,0.056,-0.008,-0.01,109.0,109.0,104.0,13.4,1505.3,323.9,-0.7,1.9,2470.188,13.31,0.056,98.1
2019-12-28T03:10:03,42.805,6.029,0.038,-0.007,-0.025,109.0,109.0,105.0,13.4,1505.3,324.4,-0.7,1.8,2470.183,13.31,0.038,100.4
2019-12-28T03:13:03,42.805,6.029,0.045,-0.016,0.0,109.0,110.0,103.0,13.3,1505.3,324.2,-0.7,1.8,2470.218,13.32,0.047,109.6
2019-12-28T03:16:03,42.805,6.029,0.037,-0.027,-0.025,109.0,110.0,105.0,13.3,1505.3,326.0,-0.7,1.8,2470.202,13.32,0.045,126.1
2019-12-28T03:19:03,42.805,6.029,0.042,-0.025,-0.05,111.0,109.0,104.0,13.4,1505.3,325.5,-0.7,1.8,2470.176,13.32,0.048,120.8
2019-12-28T03:22:03,42.805,6.029,0.028,-0.007,-0.005,109.0,109.0,105.0,13.4,1505.3,326.8,-0.7,1.8,2470.171,13.32,0.028,104.0
2019-12-28T03:25:03,42.805,6.029,0.032,-0.019,-0.02,110.0,111.0,104.0,13.4,1505.3,326.5,-0.7,1.8,2470.168,13.32,0.037,120.7
2019-12-28T03:28:03,42.805,6.029,0.048,-0.009,-0.026,110.0,108.0,104.0,13.4,1505.3,324.7,-0.8,1.8,2470.176,13.32,0.048,100.6
2019-12-28T03:31:03,42.805,6.029,0.037,-0.014,-0.009,108.0,111.0,105.0,13.4,1505.3,328.1,-0.7,1.8,2470.215,13.32,0.039,110.7
2019-12-28T03:34:03,42.805,6.029,0.04,-0.018,-0.004,111.0,112.0,105.0,13.4,1505.3,324.7,-0.7,1.8,2470.157,13.32,0.043,114.2
2019-12-28T03:37:03,42.805,6.029,0.052,-0.015,-0.003,109.0,108.0,105.0,13.4,1505.3,324.8,-0.7,1.8,2470.206,13.32,0.054,106.1
2019-12-28T03:40:03,42.805,6.029,0.05,-0.035,0.004,108.0,109.0,105.0,13.3,1505.3,326.9,-0.7,1.8,2470.227,13.32,0.061,125.0
2019-12-28T03:43:03,42.805,6.029,0.049,-0.028,-0.041,109.0,108.0,105.0,13.4,1505.3,325.1,-0.7,1.8,2470.206,13.32,0.056,119.7
2019-12-28T03:46:03,42.805,6.029,0.046,-0.028,-0.01,110.0,108.0,105.0,13.4,1505.3,326.7,-0.7,1.9,2470.173,13.32,0.053,121.3
2019-12-28T03:49:03,42.805,6.029,0.021,-0.031,0.013,109.0,110.0,106.0,13.3,1505.3,327.5,-0.7,1.8,2470.181,13.32,0.037,145.9
2019-12-28T03:52:03,42.805,6.029,0.05,-0.034,-0.019,108.0,110.0,104.0,13.4,1505.3,323.1,-0.7,1.8,2470.201,13.32,0.06,124.2
2019-12-28T03:55:03,42.805,6.029,0.015,-0.01,0.006,109.0,108.0,105.0,13.4,1505.3,326.1,-0.7,1.8,2470.204,13.32,0.018,123.7
2019-12-28T03:58:03,42.805,6.029,0.031,-0.028,-0.029,109.0,109.0,105.0,13.4,1505.3,324.9,-0.7,1.8,2470.203,13.32,0.041,132.1
2019-12-28T04:04:03,42.805,6.029,0.042,-0.013,0.006,108.0,108.0,105.0,13.4,1505.2,326.6,-0.8,1.8,2470.188,13.3,0.043,107.2
2019-12-28T04:07:03,42.805,6.029,0.036,-0.032,-0.008,110.0,110.0,106.0,13.3,1505.3,323.6,-0.7,1.8,2470.24,13.31,0.048,131.6
2019-12-28T04:10:03,42.805,6.029,0.04,-0.025,-0.014,110.0,109.0,106.0,13.4,1505.3,327.4,-0.7,1.9,2470.209,13.32,0.047,122.0
2019-12-28T04:13:03,42.805,6.029,0.024,-0.018,-0.023,111.0,109.0,105.0,13.3,1505.3,324.7,-0.7,1.9,2470.183,13.32,0.03,126.9
2019-12-28T04:16:03,42.805,6.029,0.018,-0.037,-0.027,109.0,109.0,104.0,13.4,1505.3,327.7,-0.7,1.8,2470.2,13.32,0.041,154.1
2019-12-28T04:19:03,42.805,6.029,0.027,-0.016,-0.035,111.0,109.0,105.0,13.4,1505.3,325.4,-0.7,1.9,2470.236,13.32,0.031,120.7
2019-12-28T04:22:03,42.805,6.029,0.046,0.001,-0.017,109.0,110.0,103.0,13.4,1505.3,326.8,-0.7,1.9,2470.244,13.32,0.046,88.8
2019-12-28T04:25:03,42.805,6.029,0.029,-0.022,-0.014,109.0,111.0,104.0,13.4,1505.3,325.2,-0.7,1.9,2470.233,13.32,0.036,127.2
2019-12-28T04:28:03,42.805,6.029,0.039,-0.017,-0.015,110.0,110.0,105.0,13.4,1505.3,327.7,-0.7,1.8,2470.226,13.32,0.042,113.5
2019-12-28T04:31:03,42.805,6.029,0.029,-0.013,-0.03,108.0,109.0,107.0,13.4,1505.3,325.5,-0.7,1.8,2470.221,13.32,0.031,114.1
2019-12-28T04:34:03,42.805,6.029,0.037,-0.005,-0.013,110.0,110.0,105.0,13.3,1505.3,326.3,-0.7,1.8,2470.23,13.32,0.037,97.7
2019-12-28T04:37:03,42.805,6.029,0.037,-0.008,-0.022,110.0,109.0,105.0,13.4,1505.3,328.1,-0.7,1.8,2470.233,13.32,0.037,102.2
2019-12-28T04:40:03,42.805,6.029,0.027,-0.017,-0.022,111.0,110.0,106.0,13.4,1505.3,324.0,-0.7,1.8,2470.184,13.32,0.031,122.2
2019-12-28T04:43:03,42.805,6.029,0.033,-0.028,-0.024,109.0,110.0,105.0,13.4,1505.3,323.8,-0.7,1.8,2470.229,13.32,0.043,130.3
2019-12-28T04:46:03,42.805,6.029,0.027,-0.018,-0.005,108.0,110.0,106.0,13.4,1505.3,326.6,-0.7,1.8,2470.254,13.32,0.032,123.7
2019-12-28T04:49:03,42.805,6.029,0.036,0.01,-0.002,109.0,109.0,105.0,13.4,1505.3,325.1,-0.7,1.9,2470.229,13.32,0.037,74.5
2019-12-28T04:52:03,42.805,6.029,0.046,-0.029,0.009,110.0,110.0,104.0,13.3,1505.3,327.9,-0.7,1.9,2470.261,13.32,0.054,122.2
2019-12-28T04:55:03,42.805,6.029,0.044,-0.011,-0.014,110.0,109.0,105.0,13.4,1505.3,327.0,-0.7,1.8,2470.235,13.32,0.045,104.0
2019-12-28T04:58:03,42.805,6.029,0.046,-0.013,-0.013,110.0,109.0,106.0,13.3,1505.3,327.9,-0.7,1.9,2470.254,13.32,0.047,105.8
2019-12-28T05:04:03,42.805,6.029,0.028,-0.014,-0.047,109.0,110.0,104.0,13.4,1505.2,324.3,-0.7,1.8,2470.303,13.3,0.031,116.6
2019-12-28T05:07:03,42.805,6.029,0.036,-0.03,0.0,109.0,112.0,106.0,13.4,1505.3,326.3,-0.7,1.8,2470.276,13.31,0.046,129.8
2019-12-28T05:10:03,42.805,6.029,0.053,-0.008,-0.01,109.0,109.0,105.0,13.4,1505.3,323.8,-0.7,1.8,2470.306,13.32,0.053,98.6
2019-12-28T05:13:03,42.805,6.029,0.029,-0.012,0.0,109.0,110.0,104.0,13.3,1505.3,326.7,-0.7,1.8,2470.271,13.32,0.031,112.5
2019-12-28T05:16:03,42.805,6.029,0.052,-0.019,-0.003,109.0,110.0,104.0,13.4,1505.3,325.2,-0.7,1.9,2470.273,13.32,0.055,110.1
2019-12-28T05:19:03,42.805,6.029,0.033,-0.009,-0.037,109.0,110.0,105.0,13.4,1505.3,326.5,-0.7,1.8,2470.319,13.32,0.034,105.3
2019-12-28T05:22:03,42.805,6.029,0.054,-0.008,0.015,109.0,109.0,105.0,13.4,1505.3,327.1,-0.7,1.8,2470.278,13.32,0.054,98.4
2019-12-28T05:25:03,42.805,6.029,0.051,-0.013,-0.03,110.0,108.0,104.0,13.3,1505.3,327.2,-0.7,1.9,2470.278,13.32,0.052,104.3
2019-12-28T05:28:03,42.805,6.029,0.033,-0.023,-0.015,109.0,111.0,105.0,13.3,1505.3,324.4,-0.7,1.8,2470.338,13.32,0.04,124.9
2019-12-28T05:31:03,42.805,6.029,0.023,-0.016,-0.017,110.0,109.0,105.0,13.4,1505.3,326.2,-0.7,1.8,2470.269,13.32,0.028,124.8
2019-12-28T05:34:03,42.805,6.029,0.011,-0.013,-0.02,110.0,111.0,104.0,13.4,1505.3,325.9,-0.7,1.9,2470.334,13.32,0.017,139.8
2019-12-28T05:37:03,42.805,6.029,0.061,-0.015,-0.022,109.0,109.0,105.0,13.4,1505.3,324.5,-0.7,1.9,2470.338,13.32,0.062,103.8
2019-12-28T05:40:03,42.805,6.029,0.047,-0.016,0.01,108.0,109.0,105.0,13.4,1505.3,324.0,-0.7,1.8,2470.288,13.32,0.049,108.8
2019-12-28T05:43:03,42.805,6.029,0.056,-0.009,-0.003,110.0,109.0,105.0,13.3,1505.3,326.0,-0.7,1.8,2470.283,13.32,0.056,99.1
2019-12-28T05:46:03,42.805,6.029,0.049,-0.024,-0.027,110.0,110.0,106.0,13.3,1505.3,326.1,-0.7,1.8,2470.293,13.32,0.054,116.1
2019-12-28T05:49:03,42.805,6.029,0.032,-0.024,0.0,110.0,109.0,105.0,13.4,1505.3,325.3,-0.7,1.9,2470.312,13.32,0.04,126.9
2019-12-28T05:52:03,42.805,6.029,0.039,-0.017,-0.023,110.0,109.0,105.0,13.3,1505.3,328.5,-0.7,1.8,2470.304,13.32,0.042,113.5
2019-12-28T05:55:03,42.805,6.029,0.041,-0.003,-0.014,110.0,110.0,105.0,13.4,1505.3,323.4,-0.7,1.9,2470.334,13.32,0.041,94.2
2019-12-28T05:58:03,42.805,6.029,0.042,-0.019,-0.024,110.0,109.0,104.0,13.4,1505.3,326.7,-0.7,1.8,2470.329,13.32,0.046,114.3
2019-12-28T06:04:03,42.805,6.029,0.033,-0.04,-0.011,110.0,109.0,105.0,13.4,1505.2,326.6,-0.8,1.8,2470.378,13.3,0.051,140.5
2019-12-28T06:07:03,42.805,6.029,0.055,-0.027,-0.052,110.0,110.0,106.0,13.4,1505.3,323.3,-0.7,1.8,2470.379,13.31,0.061,116.1
2019-12-28T06:10:03,42.805,6.029,0.024,-0.026,-0.017,109.0,109.0,106.0,13.4,1505.3,324.1,-0.7,1.8,2470.345,13.31,0.035,137.3
2019-12-28T06:13:03,42.805,6.029,0.048,-0.029,-0.012,109.0,110.0,106.0,13.3,1505.3,324.3,-0.7,1.9,2470.377,13.32,0.056,121.1
2019-12-28T06:16:03,42.805,6.029,0.052,-0.04,0.013,109.0,110.0,106.0,13.4,1505.3,324.5,-0.7,1.8,2470.396,13.32,0.065,127.6
2019-12-28T06:19:03,42.805,6.029,0.048,-0.011,-0.017,110.0,108.0,105.0,13.3,1505.3,324.4,-0.7,1.8,2470.35,13.32,0.049,102.9
2019-12-28T06:22:03,42.805,6.029,0.054,-0.027,-0.017,110.0,111.0,105.0,13.4,1505.3,324.1,-0.7,1.8,2470.4,13.32,0.06,116.6
2019-12-28T06:25:03,42.805,6.029,0.037,-0.026,-0.029,109.0,110.0,105.0,13.4,1505.3,328.7,-0.7,1.8,2470.413,13.32,0.045,125.1
2019-12-28T06:28:03,42.805,6.029,0.035,-0.025,0.0,109.0,111.0,105.0,13.3,1505.3,325.1,-0.7,1.8,2470.397,13.32,0.043,125.5
2019-12-28T06:31:03,42.805,6.029,0.046,-0.027,-0.032,108.0,110.0,104.0,13.3,1505.3,324.1,-0.7,1.9,2470.424,13.32,0.053,120.4
2019-12-28T06:34:03,42.805,6.029,0.07,-0.031,0.004,110.0,111.0,104.0,13.4,1505.3,324.7,-0.7,1.8,2470.428,13.32,0.076,113.9
2019-12-28T06:37:03,42.805,6.029,0.033,-0.017,-0.021,109.0,109.0,107.0,13.4,1505.3,324.7,-0.7,1.9,2470.378,13.32,0.037,117.3
2019-12-28T06:40:03,42.805,6.029,0.034,-0.026,-0.02,108.0,110.0,105.0,13.4,1505.3,323.5,-0.7,1.8,2470.447,13.32,0.042,127.4
2019-12-28T06:43:03,42.805,6.029,0.035,-0.036,-0.034,109.0,109.0,105.0,13.4,1505.3,326.1,-0.7,1.8,2470.369,13.32,0.05,135.8
2019-12-28T06:46:03,42.805,6.029,0.063,-0.031,-0.047,109.0,108.0,105.0,13.4,1505.3,324.2,-0.7,1.8,2470.381,13.32,0.07,116.2
2019-12-28T06:49:03,42.805,6.029,0.039,-0.031,-0.023,109.0,112.0,105.0,13.4,1505.3,323.6,-0.7,1.8,2470.413,13.32,0.049,128.5
2019-12-28T06:52:03,42.805,6.029,0.07,-0.038,-0.01,109.0,111.0,106.0,13.4,1505.3,326.5,-0.7,1.8,2470.392,13.32,0.079,118.5
2019-12-28T06:55:03,42.805,6.029,0.067,-0.007,-0.005,109.0,109.0,106.0,13.4,1505.3,325.4,-0.7,1.8,2470.434,13.32,0.067,96.0
2019-12-28T06:58:03,42.805,6.029,0.066,-0.025,0.003,110.0,110.0,105.0,13.4,1505.3,327.3,-0.7,1.8,2470.409,13.32,0.07,110.7
2019-12-28T07:04:03,42.805,6.029,0.052,-0.014,-0.033,108.0,109.0,105.0,13.4,1505.2,326.0,-0.7,1.9,2470.433,13.3,0.053,105.1
2019-12-28T07:07:03,42.805,6.029,0.043,-0.013,-0.059,109.0,110.0,104.0,13.4,1505.3,325.2,-0.7,1.8,2470.418,13.31,0.044,106.8
2019-12-28T07:10:03,42.805,6.029,0.066,-0.025,-0.011,109.0,111.0,106.0,13.4,1505.3,324.5,-0.7,1.9,2470.428,13.31,0.07,110.7
2019-12-28T07:13:03,42.805,6.029,0.05,-0.044,-0.053,109.0,110.0,105.0,13.4,1505.3,328.0,-0.7,1.8,2470.446,13.32,0.066,131.3
2019-12-28T07:16:03,42.805,6.029,0.051,-0.026,0.007,110.0,108.0,104.0,13.3,1505.3,323.2,-0.7,1.8,2470.412,13.32,0.057,117.0
2019-12-28T07:19:03,42.805,6.029,0.049,-0.008,-0.011,109.0,110.0,106.0,13.3,1505.3,327.3,-0.7,1.9,2470.414,13.32,0.049,99.3
2019-12-28T07:22:03,42.805,6.029,0.051,-0.036,-0.012,109.0,110.0,105.0,13.4,1505.3,325.0,-0.7,1.8,2470.411,13.32,0.062,125.2
2019-12-28T07:25:03,42.805,6.029,0.051,-0.039,-0.042,110.0,111.0,104.0,13.4,1505.3,327.0,-0.7,1.8,2470.477,13.32,0.064,127.4
2019-12-28T07:28:03,42.805,6.029,0.023,-0.019,-0.064,109.0,109.0,105.0,13.4,1505.3,328.3,-0.7,1.8,2470.462,13.32,0.029,129.6
2019-12-28T07:31:03,42.805,6.029,0.042,-0.016,-0.03,109.0,109.0,106.0,13.3,1505.3,328.3,-0.7,1.8,2470.45,13.32,0.044,110.9
2019-12-28T07:34:03,42.805,6.029,0.04,-0.023,0.004,109.0,110.0,105.0,13.4,1505.3,327.4,-0.7,1.9,2470.443,13.32,0.046,119.9
2019-12-28T07:37:03,42.805,6.029,0.057,-0.034,-0.027,108.0,110.0,105.0,13.4,1505.3,328.2,-0.7,1.8,2470.411,13.32,0.066,120.8
2019-12-28T07:40:03,42.805,6.029,0.052,-0.03,-0.004,110.0,110.0,105.0,13.4,1505.3,328.4,-0.7,1.8,2470.428,13.32,0.06,120.0
2019-12-28T07:43:03,42.805,6.029,0.063,-0.032,-0.024,109.0,111.0,105.0,13.4,1505.3,324.7,-0.7,1.8,2470.464,13.32,0.07,116.9
2019-12-28T07:46:03,42.805,6.029,0.042,-0.022,-0.046,109.0,110.0,106.0,13.4,1505.3,326.1,-0.7,1.8,2470.472,13.32,0.047,117.6
2019-12-28T07:49:03,42.805,6.029,0.054,-0.018,-0.035,110.0,110.0,105.0,13.3,1505.3,325.1,-0.7,1.8,2470.455,13.32,0.056,108.4
2019-12-28T07:52:03,42.805,6.029,0.043,-0.021,-0.014,109.0,110.0,105.0,13.3,1505.3,325.2,-0.7,1.9,2470.442,13.32,0.047,116.0
2019-12-28T07:55:03,42.805,6.029,0.061,-0.011,0.014,110.0,109.0,105.0,13.4,1505.3,323.2,-0.7,1.8,2470.439,13.32,0.061,100.2
2019-12-28T07:58:03,42.805,6.029,0.037,-0.021,0.018,109.0,110.0,106.0,13.3,1505.3,323.3,-0.7,1.8,2470.477,13.32,0.042,119.6
2019-12-28T08:04:03,42.805,6.029,0.017,-0.018,-0.022,111.0,110.0,104.0,13.4,1505.2,328.5,-0.7,1.9,2470.488,13.3,0.024,136.6
2019-12-28T08:07:03,42.805,6.029,0.064,-0.021,-0.03,110.0,109.0,106.0,13.3,1505.3,325.3,-0.7,1.8,2470.443,13.31,0.067,108.2
2019-12-28T08:10:03,42.805,6.029,0.051,-0.034,-0.016,110.0,111.0,105.0,13.3,1505.3,325.0,-0.7,1.8,2470.47,13.31,0.061,123.7
2019-12-28T08:13:03,42.805,6.029,0.053,-0.021,-0.009,110.0,110.0,105.0,13.4,1505.3,325.9,-0.7,1.8,2470.466,13.32,0.057,111.6
2019-12-28T08:16:03,42.805,6.029,0.05,-0.008,0.004,110.0,109.0,105.0,13.3,1505.3,324.0,-0.7,1.8,2470.469,13.32,0.05,99.1
2019-12-28T08:19:03,42.805,6.029,0.046,-0.033,-0.026,111.0,110.0,105.0,13.3,1505.3,328.6,-0.7,1.9,2470.441,13.32,0.056,125.7
2019-12-28T08:22:03,42.805,6.029,0.053,-0.027,0.01,111.0,109.0,104.0,13.4,1505.3,326.6,-0.7,1.8,2470.462,13.32,0.059,117.0
2019-12-28T08:25:03,42.805,6.029,0.064,-0.027,-0.029,109.0,109.0,105.0,13.4,1505.3,325.2,-0.7,1.8,2470.503,13.32,0.069,112.9
2019-12-28T08:28:03,42.805,6.029,0.047,-0.013,-0.008,110.0,110.0,104.0,13.4,1505.3,324.3,-0.7,1.8,2470.457,13.32,0.048,105.5
2019-12-28T08:31:03,42.805,6.029,0.064,-0.019,-0.014,108.0,110.0,105.0,13.4,1505.3,324.2,-0.7,1.8,2470.466,13.32,0.066,106.5
2019-12-28T08:34:03,42.805,6.029,0.059,-0.024,-0.017,108.0,110.0,105.0,13.3,1505.3,327.9,-0.7,1.8,2470.481,13.32,0.063,112.1
2019-12-28T08:37:03,42.805,6.029,0.071,-0.029,-0.019,109.0,110.0,106.0,13.4,1505.3,326.0,-0.7,1.8,2470.48,13.32,0.076,112.2
2019-12-28T08:40:03,42.805,6.029,0.067,-0.011,-0.005,109.0,110.0,105.0,13.4,1505.3,323.4,-0.7,1.8,2470.51,13.32,0.067,99.3
2019-12-28T08:43:03,42.805,6.029,0.067,-0.047,-0.017,110.0,111.0,106.0,13.4,1505.3,325.3,-0.7,1.9,2470.504,13.32,0.081,125.1
2019-12-28T08:46:03,42.805,6.029,0.043,-0.021,-0.012,109.0,110.0,104.0,13.4,1505.3,327.1,-0.7,1.8,2470.485,13.32,0.047,116.0
2019-12-28T08:49:03,42.805,6.029,0.066,-0.02,-0.012,109.0,109.0,106.0,13.4,1505.3,326.7,-0.7,1.8,2470.502,13.32,0.068,106.9
2019-12-28T08:52:03,42.805,6.029,0.044,-0.028,-0.011,109.0,109.0,106.0,13.3,1505.3,326.1,-0.7,1.8,2470.469,13.32,0.052,122.5
2019-12-28T08:55:03,42.805,6.029,0.073,-0.035,-0.011,110.0,109.0,105.0,13.4,1505.3,326.3,-0.7,1.8,2470.534,13.32,0.08,115.6
2019-12-28T08:58:03,42.805,6.029,0.035,-0.03,0.012,110.0,111.0,106.0,13.4,1505.3,328.1,-0.7,1.8,2470.518,13.32,0.046,130.6
2019-12-28T09:04:03,42.805,6.029,0.058,-0.024,-0.021,109.0,108.0,106.0,13.4,1505.2,327.8,-0.7,1.8,2470.5,13.3,0.062,112.5
2019-12-28T09:07:03,42.805,6.029,0.069,-0.027,-0.022,108.0,110.0,105.0,13.3,1505.3,323.5,-0.7,1.8,2470.492,13.31,0.074,111.4
2019-12-28T09:10:03,42.805,6.029,0.033,-0.029,-0.003,109.0,109.0,105.0,13.4,1505.3,325.6,-0.7,1.8,2470.515,13.31,0.043,131.3
2019-12-28T09:13:03,42.805,6.029,0.063,-0.036,0.007,108.0,109.0,105.0,13.3,1505.3,327.3,-0.7,1.8,2470.532,13.32,0.072,119.7
2019-12-28T09:16:03,42.805,6.029,0.066,-0.039,0.024,110.0,108.0,105.0,13.4,1505.3,325.9,-0.7,1.8,2470.527,13.32,0.076,120.6
2019-12-28T09:22:03,42.805,6.029,0.041,-0.046,0.012,109.0,110.0,106.0,13.4,1505.2,327.8,-0.7,1.8,2470.494,13.3,0.061,138.3
2019-12-28T09:25:03,42.805,6.029,0.056,-0.037,-0.001,109.0,108.0,105.0,13.4,1505.3,325.0,-0.7,1.9,2470.517,13.31,0.067,123.5
2019-12-28T09:28:03,42.805,6.029,0.067,-0.022,0.011,108.0,108.0,105.0,13.4,1505.3,323.8,-0.7,1.8,2470.496,13.31,0.07,108.2
2019-12-28T09:31:03,42.805,6.029,0.062,-0.025,-0.015,109.0,108.0,104.0,13.4,1505.3,326.8,-0.7,1.8,2470.527,13.32,0.066,112.0
2019-12-28T09:34:03,42.805,6.029,0.033,-0.031,-0.003,108.0,107.0,105.0,13.3,1505.3,327.2,-0.7,1.8,2470.487,13.32,0.045,133.2
2019-12-28T09:37:03,42.805,6.029,0.063,-0.031,-0.035,108.0,111.0,104.0,13.4,1505.3,327.2,-0.7,1.8,2470.506,13.32,0.07,116.2
2019-12-28T09:40:03,42.805,6.029,0.06,-0.039,-0.022,108.0,109.0,104.0,13.3,1505.3,326.9,-0.7,1.8,2470.484,13.32,0.071,123.0
2019-12-28T09:43:03,42.805,6.029,0.042,-0.032,-0.028,108.0,110.0,107.0,13.4,1505.3,325.6,-0.7,1.8,2470.477,13.32,0.052,127.3
2019-12-28T09:46:03,42.805,6.029,0.07,-0.032,0.001,109.0,109.0,105.0,13.4,1505.3,323.5,-0.7,1.8,2470.494,13.32,0.076,114.6
2019-12-28T09:49:03,42.805,6.029,0.045,-0.028,-0.024,109.0,109.0,106.0,13.4,1505.3,327.4,-0.7,1.8,2470.515,13.32,0.053,121.9
2019-12-28T09:52:03,42.805,6.029,0.053,-0.027,-0.004,110.0,109.0,105.0,13.3,1505.3,325.4,-0.7,1.8,2470.502,13.32,0.059,117.0
2019-12-28T09:55:03,42.805,6.029,0.053,-0.029,-0.009,109.0,110.0,105.0,13.4,1505.3,326.8,-0.8,1.8,2470.501,13.32,0.06,118.7
2019-12-28T09:58:03,42.805,6.029,0.045,-0.046,-0.012,109.0,108.0,105.0,13.3,1505.3,328.7,-0.7,1.8,2470.463,13.32,0.064,135.6